Regional Weather Roundup
Issued by NWS Cleveland, OH

Home | Current Version | Previous Version | Graphics & Text | Print | Product List | Glossary On
Versions: 1 2 3 4 5 6 7 8 9 10 11 12 13 14 15 16 17 18 19 20 21 22 23 24 25 26 27 28 29 30 31 32 33 34 35 36 37 38 39 40 41 42 43 44 45 46 47 48 49 50
877
ASUS41 KCLE 191810
RWRCLE
OHIO REGIONAL WEATHER ROUNDUP
NATIONAL WEATHER SERVICE WILMINGTON, OH
200 PM EDT TUE SEP 19 2017

NOTE: "FAIR" INDICATES FEW OR NO CLOUDS BELOW 12,000 FEET WITH NO
SIGNIFICANT WEATHER AND/OR OBSTRUCTIONS TO VISIBILITY.

OHZ001>008-015>018-024>027-034-035-043-044-191900-
   NORTHWEST OHIO

CITY           SKY/WX    TMP DP  RH WIND       PRES   REMARKS
DEFIANCE       CLOUDY    72  66  81 E10       29.96F
FINDLAY        PTSUNNY   75  67  76 SE7       29.96F
TOLEDO EXPRESS CLOUDY    70  70 100 E5        29.97F
TOLEDO EXEC    LGT RAIN  69  67  93 E8        29.98F FOG
LIMA           PTSUNNY   75  68  78 S7        29.97F
$$

OHZ009>014-019>023-028>033-038-089-191900-
   NORTHEAST OHIO

CITY           SKY/WX    TMP DP  RH WIND       PRES   REMARKS
CLE-HOPKINS    CLOUDY    78  66  66 SE7       30.01F
CLE-LAKEFRONT  CLOUDY    73  65  75 CALM      29.99F
CUY CO. ARPT   CLOUDY    77  63  61 N6        30.02S
LORAIN-ELYRIA  CLOUDY    73  63  70 N5        30.01F
ASHTABULA      FAIR      79  65  62 S6        30.02F
AKRON-CANTON   CLOUDY    79  63  57 W6        30.02S
WOOSTER        PTSUNNY   77  65  66 S5        30.02F
MANSFIELD      PTSUNNY   77  65  66 S7        30.01F
YOUNGSTOWN     CLOUDY    81  64  56 SE6       30.01F
$$

OHZ042-051>053-060>062-070>072-077>081-191900-
  SOUTHWEST OHIO

CITY           SKY/WX    TMP DP  RH WIND       PRES   REMARKS
CINC-COVINGTON CLOUDY    70  67  90 CALM      29.99F
CINC-LUNKEN    PTSUNNY   72  68  87 SE5       29.99F
HAMILTON       CLOUDY    71  69  93 SE3       29.98F
DAYTON         LGT RAIN  69  66  90 SW7       30.00F
WRIGHT-PAT AFB CLOUDY    71  71  99 SW6       29.99F
DAYTON GENERAL CLOUDY    70  68  93 S9        29.99F
WILMINGTON     LGT RAIN  70  70 100 S5        30.00F FOG
$$

OHZ036-037-039>041-045>050-054>059-063>069-073>076-082>088-191900-
  CENTRAL AND SOUTHEAST OHIO

CITY           SKY/WX    TMP DP  RH WIND       PRES   REMARKS
COLUMBUS       CLOUDY    74  65  73 SW15      30.01S
OSU AIRPORT    LGT RAIN  71  69  93 SW10      30.01S FOG
BOLTON FIELD   LGT RAIN  70  66  88 SW13G18   30.02F
RICKENBACK AFB PTSUNNY   73  65  78 SW10      30.01S
NEWARK         CLOUDY    77  66  68 SE3       30.00F
MARION         FAIR      76  64  66 S12       29.99F
LANCASTER      PTSUNNY   76  66  71 SW5       30.01F
ZANESVILLE     PTSUNNY   79  66  64 SW7       30.01F
NEW PHILLY     CLOUDY    81  66  60 SE6       30.01F
$$




USA.gov is the U.S. government's official web portal to all federal, state and local government web resources and services.